LUCH 5V (SDCM/PRN 141)

Last updated on Sat Sep 05 2026 00:03:32 GMT+0000 (Coordinated Universal Time)

1 39727U 14023A 26247.54339163 -.00000276 00000+0 00000+0 0 9997 2 39727 5.3239 68.8674 0002616 133.1210 72.0386 1.00273666 45159
UTC large
Height (km)
Speed (km/s)
/
Latitude / Longitude
Inclination (degrees)
Orbital Period (minutes)
Azimuth
Elevation
Range (km)
Doppler Factor

Next 0 passes for location: London (51.5072 / 0.1276)

No passes found over London.
LUCH 5V (SDCM/PRN 141)